Jaffrey, NH

12:50 PM EDT on April 24, 2017 (GMT -0400)
Jaffrey Airport-Silver Ranch

Weather History for KAFN - April, 2014

Change the Weather History Date:

Tuesday, April 22, 2014

  Actual Average Record
Temperature  
Mean Temperature 57 °F -  
Max Temperature 71 °F 55 °F 79 °F (2001)
Min Temperature 45 °F 31 °F 26 °F (2013)
Degree Days  
Heating Degree Days 8    
Growing Degree Days 7 (Base 50)    
Moisture  
Dew Point 40 °F    
Average Humidity 60    
Maximum Humidity 93    
Minimum Humidity 25    
Precipitation  
Precipitation 0.03 in - - ()
Sea Level Pressure  
Sea Level Pressure 29.61 in    
Wind  
Wind Speed 6 mph (SSW)    
Max Wind Speed 13 mph    
Max Gust Speed 21 mph    
Visibility 10 miles    
Events Rain    
Averages and records for this station are not official NWS values.
T = Trace of Precipitation, MM = Missing Value Source: NWS Daily Summary

Daily Weather History Graph

Daily Weather History Graph

Search for Another Location

Airport or City:

Trip Planner

Search our weather history database for the weather conditions in past years. The results will help you decide how hot, cold, wet, or windy it might be!

Date:

Astronomy

Apr. 22, 2014 Rise Set
Actual Time 5:55 AM EDT 7:38 PM EDT
Civil Twilight 5:25 AM EDT 8:08 PM EDT
Nautical Twilight 4:49 AM EDT 8:44 PM EDT
Astronomical Twilight 4:09 AM EDT 9:24 PM EDT
Moon 1:52 AM EDT (4/22) 12:26 PM EDT (4/22)
Length of Visible Light 14h 42m
Length of Day
13h 42m
Last Quarter, 46% of the Moon is Illuminated
Apr 22
Last Quarter
Apr 29
New
May 6
First Quarter
May 14
Full
May 21
Last Quarter

Hourly Weather History & Observations

Time (EDT) Temp. Windchill Dew Point Humidity Pressure Visibility Wind Dir Wind Speed Gust Speed Precip Events Conditions
12:52 AM 48.9 °F - 34.0 °F 56% 29.84 in 10.0 mi South 4.6 mph - N/A   Clear
1:52 AM 48.0 °F - 35.1 °F 61% 29.82 in 10.0 mi SSW 5.8 mph - N/A   Mostly Cloudy
2:52 AM 48.0 °F - 35.1 °F 61% 29.80 in 10.0 mi South 4.6 mph - N/A   Mostly Cloudy
3:52 AM 46.0 °F - 35.1 °F 66% 29.78 in 10.0 mi Calm Calm - N/A   Overcast
4:52 AM 46.0 °F 43.9 °F 36.0 °F 68% 29.76 in 10.0 mi SSW 4.6 mph - N/A   Overcast
5:52 AM 46.0 °F 43.1 °F 37.0 °F 71% 29.75 in 10.0 mi South 5.8 mph - N/A   Mostly Cloudy
6:52 AM 45.0 °F 42.6 °F 37.9 °F 76% 29.74 in 10.0 mi South 4.6 mph - N/A   Clear
7:52 AM 48.0 °F - 37.9 °F 68% 29.73 in 10.0 mi SSW 5.8 mph - N/A   Clear
8:52 AM 51.1 °F - 37.9 °F 61% 29.71 in 10.0 mi SSW 4.6 mph - N/A   Clear
9:52 AM 55.9 °F - 37.9 °F 51% 29.68 in 10.0 mi South 4.6 mph - N/A   Clear
10:52 AM 63.0 °F - 35.1 °F 35% 29.64 in 10.0 mi SW 6.9 mph - N/A   Clear
11:52 AM 66.0 °F - 34.0 °F 30% 29.62 in 10.0 mi Variable 5.8 mph - N/A   Clear
12:52 PM 68.0 °F - 34.0 °F 28% 29.58 in 10.0 mi SSW 11.5 mph 17.3 mph N/A   Clear
1:52 PM 69.1 °F - 32.0 °F 25% 29.56 in 10.0 mi SW 10.4 mph - N/A   Clear
2:52 PM 69.1 °F - 34.0 °F 27% 29.54 in 10.0 mi SSW 8.1 mph - N/A   Mostly Cloudy
3:52 PM 66.9 °F - 37.9 °F 34% 29.52 in 10.0 mi SW 6.9 mph - N/A   Overcast
4:52 PM 64.9 °F - 39.0 °F 39% 29.53 in 10.0 mi SW 12.7 mph 20.7 mph N/A   Overcast
5:52 PM 63.0 °F - 39.9 °F 43% 29.52 in 10.0 mi SSW 8.1 mph - N/A   Overcast
6:52 PM 62.1 °F - 41.0 °F 46% 29.51 in 10.0 mi SSW 5.8 mph - 0.00 in   Overcast
7:52 PM 61.0 °F - 42.1 °F 50% 29.50 in 10.0 mi SSW 6.9 mph - N/A   Overcast
8:52 PM 59.0 °F - 44.1 °F 58% 29.51 in 10.0 mi SW 8.1 mph - N/A   Overcast
9:52 PM 53.1 °F - 50.0 °F 89% 29.52 in 7.0 mi South 5.8 mph - 0.03 in Rain Light Rain
10:41 PM 52.0 °F - 48.9 °F 89% 29.49 in 9.0 mi Variable 4.6 mph - 0.00 in   Overcast
10:50 PM 51.8 °F - 48.2 °F 88% 29.49 in 9.0 mi SSW 6.9 mph - 0.00 in   Mostly Cloudy
10:52 PM 52.0 °F - 48.9 °F 89% 29.50 in 9.0 mi SSW 6.9 mph - 0.00 in   Mostly Cloudy
11:04 PM 52.0 °F - 48.9 °F 89% 29.48 in 9.0 mi SSW 5.8 mph - N/A   Mostly Cloudy
11:36 PM 52.0 °F - 48.9 °F 89% 29.48 in 7.0 mi SSW 5.8 mph - N/A   Overcast
11:52 PM 52.0 °F - 50.0 °F 93% 29.49 in 6.0 mi Variable 4.6 mph - N/A   Overcast